Tracking 30743 objects as of 21-Jun-2025
HD Live streaming from Space Station
objects crossing your sky now

NOAA 16 DEB

Track NOAA 16 DEB now!
10-day predictions


NORAD ID: 41302
Int'l Code: 2000-055HE
Perigee: 807.9 km
Apogee: 840.9 km
Inclination: 98.7 °
Period: 101.2 minutes
Semi major axis: 7195 km
RCS: Unknown
Launch date: September 21, 2000
Source: United States (US)
Launch site: AIR FORCE WESTERN TEST RANGE (AFWTR)

Note: This is SATELLITE DEBRIS
Your satellite tracking list
Your tracking list is empty




NASA's NSSDC Master Catalog

Two Line Element Set (TLE):
1 41302U 00055HE  25172.11019076  .00002793  00000-0  12707-2 0  9992
2 41302  98.7322 231.9212 0022895 167.5296 192.6453 14.22400287488241
Source of the keplerian elements: AFSPC